Regional Weather Roundup
Issued by NWS Bismarck, ND

Home | Current Version | Previous Version | Text Only | Print | Product List | Glossary On
Versions: 1 2 3 4 5 6 7 8 9 10 11 12 13 14 15 16 17 18 19 20 21 22 23 24 25 26 27 28 29 30 31 32 33 34 35 36 37 38 39 40 41 42 43 44 45 46 47 48 49 50
000
ASUS43 KBIS 040510
RWRBIS

NWR BROADCAST TEXT
NATIONAL WEATHER SERVICE BISMARCK ND
1100 PM CST TUE MAR 03 2015

NOTE: "FAIR" INDICATES FEW OR NO CLOUDS BELOW 12,000 FEET WITH NO
SIGNIFICANT WEATHER AND/OR OBSTRUCTIONS TO VISIBILITY.


CITY           SKY/WX    TMP DP  RH WIND       PRES   REMARKS
WILLISTON      PTCLDY     1  -9  62 NW15      30.07R WCI -18
MINOT          MOCLDY     0  -9  65 W15       30.00R WCI -19
MINOT AFB      MIX PCPN  -2  -8  78 W13       30.00R WCI -21
BISMARCK       PTCLDY     3  -7  63 CALM      30.05F
DICKINSON      CLOUDY     7  -1  70 W9        29.95S WCI  -7
GARRISON         N/A     -1  -7  75 W9        30.00R WCI -16
HETTINGER ARPT CLEAR      4  -5  66 W10       29.99F WCI -11
JAMESTOWN      CLEAR      0 -10  63 W15       30.02S WCI -19
BEACH          LGT SNOW   7   1  78 N22G32    30.02R WCI -14
CARRINGTON     FAIR       0  -8  71 MISG      30.02R
CROSBY         FAIR      -4  -9  77 NW13      30.05R WCI -23
HARVEY         FAIR      -2 -11  65 W7        30.00F WCI -16
HAZEN          CLOUDY     3  -4  72 SW8       30.03S WCI -10
LINTON         FAIR       0  -4  85 W3        30.07S
MANDAN         CLOUDY     0  -6  78 W7        30.03F WCI -13
OAKES            N/A      1  -6  71 W14       30.07F WCI -17
RUGBY          FAIR      -8 -13  77 W10       30.00S WCI -26
WATFORD CITY   FAIR       1  -6  71 NW16G25   30.03R WCI -18
$$

CITY           SKY/WX    TMP DP  RH WIND       PRES   REMARKS
GRAND FORKS    PTCLDY    -2  -9  72 W8        30.03R WCI -17
GRAND FORKS AF CLEAR      0 -10  64 NW15G21   30.02R WCI -20
DEVILS LAKE    CLEAR     -2 -11  65 NW16      29.98S WCI -23
FARGO          CLEAR      2  -8  63 W9        30.07R WCI -13
CANDO          FAIR      -4 -11  71 W12       30.00R WCI -22
CAVALIER       FAIR       0  -9  65 NW15      30.00R WCI -20
GWINNER        CLEAR      5  -6  61 NW13      30.08R WCI -12
ROLLA          FAIR      -4 -13  65 NW13      29.95R WCI -23
WALHALLA         N/A     -2 -13  60 NW14G22   29.99R WCI -21
$$

CITY           SKY/WX    TMP DP  RH WIND       PRES   REMARKS
ABERDEEN       CLEAR      2  -7  66 NW10      30.12R WCI -14
MOBRIDGE       CLEAR      3  -3  76 NW3       30.05R
BUFFALO          N/A      3  -5  69 W12       29.92S WCI -13
RAPID CITY     CLEAR      1  -6  72 W3        30.05R
GLASGOW        CLEAR      6  -5  60 NW15      30.10R WCI -12
SIDNEY         PTCLDY     5  -6  61 NW14G22   30.11R WCI -12
WOLF POINT     CLEAR      5  -5  63 N12       30.14R WCI -11
MILES CITY     CLOUDY    13  -5  44 NW14G24   30.09R WCI  -2
BAKER          CLEAR      7  -4  60 NW18      30.00R WCI -12
$$

CITY           SKY/WX    TMP DP  RH WIND       PRES   REMARKS
BILLINGS       PTCLDY    10  -6  48 W14       30.08R WCI  -6
GREAT FALLS    CLOUDY    11   2  67 NW9       30.13R WCI  -2
REGINA         PTCLDY   -11 -18  70 NW12      30.10R WCI -31
ESTEVAN        PTCLDY    -8 -15  71 NW14      30.04R WCI -28
$$




USA.gov is the U.S. government's official web portal to all federal, state and local government web resources and services.